When you browse on this site, cookies collect data to enhance your experience and personalize the content and advertising you see.
Visit our Privacy Policy to learn more. By continuing to use the site, you agree to this use of cookies and data.
  • în România
  • Lista ţărilor
  • Pe 7 zile
  • Temperatura apei
  • Hartă satelitară
  • Meteo pe hartă
  • Widget-uri
  • user-avatar
    Intrare

    Meteo pe oră la Baku

    Astăzi, 20 Iunie, Joi

    Timp Temperatura Precipitaţii Vânt Presiune Umiditate
    00:00 +28°C° 0 mm 6 m/s 755 mmHg 45%
    01:00 +28°C° 0 mm 6 m/s 755 mmHg 45%
    02:00 +28°C° 0 mm 5 m/s 755 mmHg 46%
    03:00 +27°C° 0 mm 5 m/s 754 mmHg 45%
    04:00 +28°C° 0 mm 5 m/s 754 mmHg 43%
    05:00 +28°C° 0 mm 5 m/s 755 mmHg 41%
    06:00 +29°C° 0 mm 5 m/s 755 mmHg 39%
    07:00 +30°C° 0 mm 5 m/s 755 mmHg 36%
    08:00 +32°C° 0 mm 5 m/s 755 mmHg 32%
    09:00 +33°C° 0 mm 5 m/s 754 mmHg 29%
    10:00 +33°C° 0 mm 5 m/s 754 mmHg 28%
    11:00 +34°C° 0 mm 5 m/s 754 mmHg 28%
    12:00 +34°C° 0 mm 5 m/s 754 mmHg 28%
    13:00 +34°C° 0 mm 5 m/s 754 mmHg 28%
    14:00 +34°C° 0 mm 5 m/s 754 mmHg 29%
    15:00 +34°C° 0 mm 5 m/s 753 mmHg 29%
    16:00 +33°C° 0 mm 4 m/s 753 mmHg 32%
    17:00 +33°C° 0 mm 3 m/s 753 mmHg 34%
    18:00 +31°C° 0 mm 3 m/s 753 mmHg 36%
    19:00 +30°C° 0 mm 4 m/s 754 mmHg 40%
    20:00 +30°C° 0 mm 5 m/s 754 mmHg 44%
    21:00 +29°C° 0 mm 6 m/s 754 mmHg 48%
    22:00 +28°C° 0 mm 7 m/s 754 mmHg 49%
    23:00 +28°C° 0 mm 8 m/s 754 mmHg 50%

    Mâine, 21 Iunie, Vineri

    Timp Temperatura Precipitaţii Vânt Presiune Umiditate
    00:00 +28°C° 0 mm 9 m/s 754 mmHg 51%
    01:00 +28°C° 0 mm 9 m/s 754 mmHg 50%
    02:00 +28°C° 0 mm 9 m/s 754 mmHg 48%
    03:00 +28°C° 0 mm 8 m/s 754 mmHg 46%
    04:00 +28°C° 0.1 mm 9 m/s 754 mmHg 45%
    05:00 +28°C° 0.1 mm 9 m/s 754 mmHg 44%
    06:00 +29°C° 0.1 mm 9 m/s 754 mmHg 43%
    07:00 +29°C° 0.2 mm 9 m/s 754 mmHg 44%
    08:00 +31°C° 0.2 mm 9 m/s 755 mmHg 45%
    09:00 +31°C° 0.2 mm 10 m/s 755 mmHg 46%
    10:00 +31°C° 0.5 mm 9 m/s 755 mmHg 47%
    11:00 +31°C° 0.5 mm 9 m/s 755 mmHg 48%
    12:00 +31°C° 0.5 mm 8 m/s 755 mmHg 50%
    13:00 +31°C° 0.5 mm 8 m/s 755 mmHg 51%
    14:00 +31°C° 0.5 mm 8 m/s 755 mmHg 52%
    15:00 +30°C° 0.5 mm 7 m/s 755 mmHg 53%
    16:00 +31°C° 0.2 mm 8 m/s 755 mmHg 50%
    17:00 +31°C° 0.2 mm 9 m/s 755 mmHg 48%
    18:00 +31°C° 0.2 mm 10 m/s 755 mmHg 45%
    19:00 +31°C° 0 mm 11 m/s 755 mmHg 48%
    20:00 +29°C° 0 mm 11 m/s 755 mmHg 51%
    21:00 +29°C° 0 mm 12 m/s 755 mmHg 54%
    22:00 +29°C° 0 mm 12 m/s 756 mmHg 52%
    23:00 +29°C° 0 mm 11 m/s 756 mmHg 51%

    Poimâine, 22 Iunie, Sâmbătă

    Timp Temperatura Precipitaţii Vânt Presiune Umiditate
    00:00 +29°C° 0 mm 11 m/s 756 mmHg 49%
    01:00 +29°C° 0 mm 10 m/s 756 mmHg 50%
    02:00 +28°C° 0 mm 10 m/s 756 mmHg 51%
    03:00 +28°C° 0 mm 9 m/s 756 mmHg 52%
    04:00 +28°C° 0 mm 9 m/s 756 mmHg 52%
    05:00 +28°C° 0 mm 9 m/s 756 mmHg 52%
    06:00 +28°C° 0 mm 9 m/s 756 mmHg 52%
    07:00 +29°C° 0.1 mm 9 m/s 757 mmHg 50%
    08:00 +29°C° 0.1 mm 9 m/s 757 mmHg 48%
    09:00 +29°C° 0.1 mm 9 m/s 757 mmHg 46%
    10:00 +31°C° 0.1 mm 8 m/s 757 mmHg 44%
    11:00 +32°C° 0.1 mm 8 m/s 757 mmHg 42%
    12:00 +33°C° 0.1 mm 8 m/s 757 mmHg 40%
    13:00 +33°C° 0 mm 7 m/s 757 mmHg 40%
    14:00 +33°C° 0 mm 7 m/s 757 mmHg 40%
    15:00 +33°C° 0 mm 6 m/s 756 mmHg 40%
    16:00 +33°C° 0 mm 6 m/s 756 mmHg 42%
    17:00 +32°C° 0 mm 6 m/s 756 mmHg 44%
    18:00 +32°C° 0 mm 5 m/s 756 mmHg 47%
    19:00 +30°C° 0 mm 5 m/s 756 mmHg 49%
    20:00 +30°C° 0 mm 5 m/s 757 mmHg 51%
    21:00 +29°C° 0 mm 4 m/s 757 mmHg 54%
    22:00 +29°C° 0 mm 4 m/s 757 mmHg 54%
    23:00 +28°C° 0 mm 5 m/s 757 mmHg 55%

    23 Iunie, Duminică

    Timp Temperatura Precipitaţii Vânt Presiune Umiditate
    00:00 +28°C° 0 mm 5 m/s 756 mmHg 56%
    01:00 +28°C° 0 mm 5 m/s 756 mmHg 54%
    02:00 +28°C° 0 mm 5 m/s 756 mmHg 53%
    03:00 +28°C° 0 mm 5 m/s 756 mmHg 52%
    04:00 +28°C° 0 mm 5 m/s 756 mmHg 51%
    05:00 +29°C° 0 mm 5 m/s 757 mmHg 51%
    06:00 +29°C° 0 mm 5 m/s 757 mmHg 51%
    07:00 +30°C° 0 mm 5 m/s 757 mmHg 47%
    08:00 +32°C° 0 mm 5 m/s 757 mmHg 44%
    09:00 +33°C° 0 mm 5 m/s 757 mmHg 41%
    10:00 +33°C° 0 mm 4 m/s 757 mmHg 38%
    11:00 +34°C° 0 mm 3 m/s 757 mmHg 36%
    12:00 +35°C° 0 mm 2 m/s 757 mmHg 34%
    13:00 +36°C° 0 mm 3 m/s 757 mmHg 33%
    14:00 +36°C° 0 mm 3 m/s 757 mmHg 32%
    15:00 +37°C° 0 mm 3 m/s 757 mmHg 31%
    16:00 +37°C° 0 mm 3 m/s 756 mmHg 29%
    17:00 +37°C° 0 mm 3 m/s 756 mmHg 26%
    18:00 +38°C° 0 mm 2 m/s 756 mmHg 23%
    19:00 +37°C° 0 mm 2 m/s 757 mmHg 26%
    20:00 +36°C° 0 mm 3 m/s 757 mmHg 29%
    21:00 +35°C° 0 mm 3 m/s 757 mmHg 32%
    22:00 +34°C° 0 mm 2 m/s 757 mmHg 34%
    23:00 +32°C° 0 mm 2 m/s 757 mmHg 37%

    24 Iunie, Luni

    Timp Temperatura Precipitaţii Vânt Presiune Umiditate
    00:00 +32°C° 0 mm 1 m/s 757 mmHg 39%
    01:00 +31°C° 0 mm 1 m/s 757 mmHg 40%
    02:00 +31°C° 0 mm 1 m/s 757 mmHg 42%
    03:00 +28°C° 0 mm 0 m/s 757 mmHg 43%
    04:00 +31°C° 0 mm 1 m/s 757 mmHg 41%
    05:00 +31°C° 0 mm 1 m/s 757 mmHg 39%
    06:00 +32°C° 0 mm 1 m/s 757 mmHg 36%
    07:00 +34°C° 0 mm 2 m/s 757 mmHg 34%
    08:00 +35°C° 0 mm 2 m/s 757 mmHg 31%
    09:00 +36°C° 0 mm 3 m/s 757 mmHg 28%
    10:00 +37°C° 0 mm 3 m/s 757 mmHg 26%
    11:00 +38°C° 0 mm 4 m/s 757 mmHg 24%
    12:00 +40°C° 0 mm 4 m/s 757 mmHg 23%
    13:00 +40°C° 0 mm 4 m/s 757 mmHg 21%
    14:00 +40°C° 0 mm 4 m/s 757 mmHg 20%
    15:00 +41°C° 0 mm 4 m/s 756 mmHg 18%
    16:00 +39°C° 0 mm 3 m/s 756 mmHg 18%
    17:00 +39°C° 0 mm 3 m/s 756 mmHg 18%
    18:00 +39°C° 0 mm 2 m/s 756 mmHg 18%
    19:00 +38°C° 0 mm 2 m/s 756 mmHg 19%
    20:00 +37°C° 0 mm 3 m/s 756 mmHg 21%
    21:00 +36°C° 0 mm 3 m/s 756 mmHg 23%
    22:00 +35°C° 0 mm 2 m/s 756 mmHg 25%
    23:00 +34°C° 0 mm 2 m/s 756 mmHg 28%

    25 Iunie, Marţi

    Timp Temperatura Precipitaţii Vânt Presiune Umiditate
    00:00 +33°C° 0 mm 1 m/s 756 mmHg 30%
    01:00 +32°C° 0 mm 1 m/s 756 mmHg 31%
    02:00 +32°C° 0 mm 2 m/s 756 mmHg 31%
    03:00 +32°C° 0 mm 2 m/s 756 mmHg 32%
    04:00 +32°C° 0 mm 2 m/s 756 mmHg 33%
    05:00 +32°C° 0 mm 2 m/s 756 mmHg 34%
    06:00 +32°C° 0 mm 2 m/s 756 mmHg 35%
    07:00 +34°C° 0 mm 2 m/s 757 mmHg 33%
    08:00 +34°C° 0 mm 2 m/s 757 mmHg 31%
    09:00 +35°C° 0 mm 2 m/s 757 mmHg 30%
    10:00 +36°C° 0 mm 2 m/s 757 mmHg 26%
    11:00 +38°C° 0 mm 3 m/s 757 mmHg 23%
    12:00 +40°C° 0 mm 4 m/s 757 mmHg 19%
    13:00 +40°C° 0 mm 4 m/s 757 mmHg 19%
    14:00 +40°C° 0 mm 5 m/s 757 mmHg 19%
    15:00 +40°C° 0 mm 6 m/s 756 mmHg 19%
    16:00 +40°C° 0 mm 5 m/s 756 mmHg 18%
    17:00 +38°C° 0 mm 4 m/s 756 mmHg 17%
    18:00 +38°C° 0 mm 3 m/s 756 mmHg 16%
    19:00 +37°C° 0 mm 2 m/s 756 mmHg 17%
    20:00 +36°C° 0 mm 1 m/s 756 mmHg 18%
    21:00 +35°C° 0 mm 1 m/s 756 mmHg 19%
    22:00 +35°C° 0 mm 1 m/s 756 mmHg 19%
    23:00 +34°C° 0 mm 1 m/s 756 mmHg 20%
    Arată mai mult